AirNav   ATP
 
 684 users online  

MN28 Lux Strip Airport
Cosmos, Minnesota, USA

GOING TO COSMOS?


FAA INFORMATION EFFECTIVE 09 NOVEMBER 2017

Location

FAA Identifier: MN28
Lat/Long: 44-58-58.8630N / 094-44-52.9870W
44-58.981050N / 094-44.883117W
44.9830175 / -94.7480519
(estimated)
Elevation: 1120 ft. / 341 m (estimated)
Variation: 04E (1985)
From city: 3 miles NW of COSMOS, MN
Time zone: UTC -6 (UTC -5 during Daylight Saving Time)
Zip code: 56228

Airport Operations

Airport use: Private use. Permission required prior to landing
Activation date: 02/1977
Control tower: no
ARTCC: MINNEAPOLIS CENTER
FSS: PRINCETON FLIGHT SERVICE STATION
Attendance: UNATNDD
Wind indicator: yes
Segmented circle: no

Airport Communications

WX AWOS-3 at LJF (12 nm NE): 109.0 (320-693-6456)
WX AWOS-3 at HCD (17 nm SE): 118.525 (320-587-3343)
WX AWOS-3 at OVL (17 nm SW): 119.275 (320-523-5924)
WX AWOS-3 at BDH (18 nm NW): 113.7 (320-235-8287)

Nearby radio navigation aids

VOR radial/distance  VOR name  Freq  Var
DWNr236/14.0DARWIN VORTAC109.0007E
BDHr113/18.0WILLMAR VOR/DME113.7004E
RWFr021/34.9REDWOOD FALLS VOR/DME113.3007E

 
NDB name  Hdg/Dist  Freq  Var  ID
GLENCOE292/31.140703EGYL --. -.-- .-..

Airport Services

Runway Information

Runway 18/36

Dimensions: 2550 x 90 ft. / 777 x 27 m
Surface: turf
RUNWAY 18  RUNWAY 36
Traffic pattern: leftleft

Airport Ownership and Management from official FAA records

Ownership: Privately-owned
Owner: DAVID LUX
50846 160TH ST
COSMOS, MN 56228
Phone 320-877-7498
Manager: DAVID LUX
50846 160TH ST
COSMOS, MN 56228
Phone 320-877-7498

Airport Operational Statistics

Aircraft based on the field: 1
Single engine airplanes: 1
    

Additional Remarks

DO NOT CHART PER MINNESOTA DEPARTMENT OF TRANSPORTATION

Instrument Procedures

There are no published instrument procedures at MN28.

Some nearby airports with instrument procedures:

KLJF - Litchfield Municipal Airport (12 nm NE)
KHCD - Hutchinson Municipal Airport-Butler Field (17 nm SE)
KOVL - Olivia Regional Airport (17 nm SW)
KBDH - Willmar Municipal Airport-John L Rice Fiel (18 nm NW)
KPEX - Paynesville Municipal Airport (23 nm N)
 
Loc | Ops | Rwys | IFR | FBO | Links
Com | Nav | Svcs | Stats | Notes


 
Area around MN28 (Lux Strip Airport)
 
Road maps at: MapQuest Bing Google
 
Aerial photo
No photo
 
Sectional chart

 
Airport distance calculator
Flying to Lux Strip Airport? Find the distance to fly.

From to MN28

Sunrise and sunset
Times for 23-Nov-2017
 Local
(UTC-6)
 Zulu
(UTC)
Morning civil twilight06:5612:56
Sunrise07:2813:28
Sunset16:4322:43
Evening civil twilight17:1523:15

Current date and time
Zulu (UTC)  24-Nov-2017 02:14:15
Local (UTC-6)  23-Nov-2017 20:14:15
 
METAR
KLJF 
13nm NE 
240153Z AUTO 19003KT 10SM CLR 06/00 A2964 RMK AO2
KOVL 
17nm SW 
240153Z AUTO 17008KT 10SM CLR 05/00 A2963 RMK AO2
KHCD 
18nm SE 
240154Z AUTO 17008KT 10SM CLR 06/00 A2966 RMK AO2 T00560000
KBDH 
18nm NW 
240155Z AUTO 14006KT 10SM CLR 02/M01 A2963 RMK AO2
KPEX 
23nm N 
240153Z AUTO 19008G16KT 10SM CLR 06/00 A2962 RMK AO2 T00570001
TAF
KRWF 
30nm SW 
232159Z 2322/2418 17008KT P6SM BKN250 FM240300 19012KT P6SM BKN250 FM241500 25010KT P6SM BKN120
NOTAMs
Click for the latest NOTAMs
NOTAMs are issued by the DoD/FAA and will open in a separate window not controlled by AirNav.

 

 
 

Would you like to see your business listed on this page?

 If your business provides an interesting product or service to pilots, flight crews, aircraft, or users of the Lux Strip Airport, you should consider listing it here.  To start the listing process, click on the button below
 
Add a business
 

Other Pages about Lux Strip Airport

Update a link
 
Copyright © AirNav, LLC. All rights reserved. Privacy Policy  Contact